contact:dominique.lefevre@mio.osupytheas.fr, maurice.libes@osupytheas.fr, didier.mallarino@osupytheas.fr
Project:EMSO http://www.emso-fr.org/EMSO-France
Depth: 2436.0 m
Title:EMSO Ligure Ouest : Data MII capteur MICROCAT
DateTime_Computer,Latitude,Longitude,Temperature,Conductivity,Pressure,DateTime_Instrument
DateTime_Computer,Latitude,Longitude,degC,S m-1,dbar,DateTime_Instrument
2022-08-08T00:02:22Z,42.805,6.029,13.3029,4.60094,2470.6,2022-8-08T02:04:10Z
2022-08-08T00:05:25Z,42.805,6.029,13.3028,4.60122,2470.577,2022-8-08T02:07:13Z
2022-08-08T00:08:28Z,42.805,6.029,13.3028,4.60105,2470.624,2022-8-08T02:10:16Z
2022-08-08T00:11:31Z,42.805,6.029,13.3024,4.60108,2470.637,2022-8-08T02:13:20Z
2022-08-08T00:14:34Z,42.805,6.029,13.3027,4.60110,2470.624,2022-8-08T02:16:23Z
2022-08-08T00:17:37Z,42.805,6.029,13.3030,4.60112,2470.6,2022-8-08T02:19:26Z
2022-08-08T00:20:40Z,42.805,6.029,13.3024,4.60095,2470.6,2022-8-08T02:22:29Z
2022-08-08T00:23:43Z,42.805,6.029,13.3027,4.60112,2470.637,2022-8-08T02:25:32Z
2022-08-08T00:26:47Z,42.805,6.029,13.3033,4.60102,2470.577,2022-8-08T02:28:35Z
2022-08-08T00:29:50Z,42.805,6.029,13.3017,4.60109,2470.624,2022-8-08T02:31:38Z
2022-08-08T00:32:53Z,42.805,6.029,13.3032,4.60119,2470.624,2022-8-08T02:34:41Z
2022-08-08T00:35:56Z,42.805,6.029,13.3038,4.60107,2470.624,2022-8-08T02:37:44Z
2022-08-08T00:38:59Z,42.805,6.029,13.3024,4.60117,2470.624,2022-8-08T02:40:48Z
2022-08-08T00:42:02Z,42.805,6.029,13.3019,4.60102,2470.624,2022-8-08T02:43:51Z
2022-08-08T00:45:05Z,42.805,6.029,13.3028,4.60108,2470.6,2022-8-08T02:46:54Z
2022-08-08T00:48:08Z,42.805,6.029,13.3018,4.60103,2470.614,2022-8-08T02:49:57Z
2022-08-08T00:51:11Z,42.805,6.029,13.3022,4.60111,2470.614,2022-8-08T02:53:00Z
2022-08-08T00:54:15Z,42.805,6.029,13.3034,4.60097,2470.684,2022-8-08T02:56:03Z
2022-08-08T00:57:18Z,42.805,6.029,13.3021,4.60092,2470.637,2022-8-08T02:59:06Z
2022-08-08T01:00:21Z,42.805,6.029,13.3024,4.60108,2470.624,2022-8-08T03:02:09Z
2022-08-08T01:03:24Z,42.805,6.029,13.3021,4.60110,2470.637,2022-8-08T03:05:12Z
2022-08-08T01:06:27Z,42.805,6.029,13.3024,4.60102,2470.684,2022-8-08T03:08:16Z
2022-08-08T01:09:30Z,42.805,6.029,13.3025,4.60108,2470.624,2022-8-08T03:11:19Z
2022-08-08T01:12:33Z,42.805,6.029,13.3016,4.60094,2470.624,2022-8-08T03:14:22Z
2022-08-08T01:15:36Z,42.805,6.029,13.3027,4.60102,2470.591,2022-8-08T03:17:25Z
2022-08-08T01:18:40Z,42.805,6.029,13.3026,4.60110,2470.614,2022-8-08T03:20:28Z
2022-08-08T01:21:43Z,42.805,6.029,13.3020,4.60119,2470.614,2022-8-08T03:23:31Z
2022-08-08T01:24:46Z,42.805,6.029,13.3019,4.60117,2470.661,2022-8-08T03:26:34Z
2022-08-08T01:27:49Z,42.805,6.029,13.3015,4.60115,2470.646,2022-8-08T03:29:37Z
2022-08-08T01:30:52Z,42.805,6.029,13.3028,4.60087,2470.624,2022-8-08T03:32:41Z
2022-08-08T01:33:55Z,42.805,6.029,13.3018,4.60113,2470.637,2022-8-08T03:35:44Z
2022-08-08T01:36:58Z,42.805,6.029,13.3015,4.60072,2470.624,2022-8-08T03:38:47Z
2022-08-08T01:40:01Z,42.805,6.029,13.3017,4.60084,2470.624,2022-8-08T03:41:50Z
2022-08-08T01:43:04Z,42.805,6.029,13.3021,4.60102,2470.646,2022-8-08T03:44:53Z
2022-08-08T01:46:08Z,42.805,6.029,13.3020,4.60074,2470.637,2022-8-08T03:47:56Z
2022-08-08T01:49:11Z,42.805,6.029,13.3016,4.60082,2470.67,2022-8-08T03:50:59Z
2022-08-08T01:52:14Z,42.805,6.029,13.3019,4.60112,2470.646,2022-8-08T03:54:02Z
2022-08-08T01:55:17Z,42.805,6.029,13.3036,4.60094,2470.624,2022-8-08T03:57:05Z
2022-08-08T01:58:20Z,42.805,6.029,13.3018,4.60104,2470.661,2022-8-08T04:00:09Z
2022-08-08T02:01:23Z,42.805,6.029,13.3028,4.60111,2470.6,2022-8-08T04:03:12Z
2022-08-08T02:04:26Z,42.805,6.029,13.3023,4.60104,2470.624,2022-8-08T04:06:15Z
2022-08-08T02:07:29Z,42.805,6.029,13.3023,4.60102,2470.646,2022-8-08T04:09:18Z
2022-08-08T02:10:32Z,42.805,6.029,13.3021,4.60110,2470.646,2022-8-08T04:12:21Z
2022-08-08T02:13:36Z,42.805,6.029,13.3034,4.60107,2470.646,2022-8-08T04:15:24Z
2022-08-08T02:16:39Z,42.805,6.029,13.3019,4.60100,2470.67,2022-8-08T04:18:27Z
2022-08-08T02:19:42Z,42.805,6.029,13.3023,4.60094,2470.637,2022-8-08T04:21:30Z
2022-08-08T02:22:45Z,42.805,6.029,13.3023,4.60092,2470.646,2022-8-08T04:24:34Z
2022-08-08T02:25:48Z,42.805,6.029,13.3015,4.60087,2470.6,2022-8-08T04:27:37Z
2022-08-08T02:28:51Z,42.805,6.029,13.3014,4.60097,2470.646,2022-8-08T04:30:40Z
2022-08-08T02:31:54Z,42.805,6.029,13.3025,4.60097,2470.646,2022-8-08T04:33:43Z
2022-08-08T02:34:57Z,42.805,6.029,13.3020,4.60101,2470.661,2022-8-08T04:36:46Z
2022-08-08T02:38:01Z,42.805,6.029,13.3016,4.60097,2470.661,2022-8-08T04:39:49Z
2022-08-08T02:41:04Z,42.805,6.029,13.3030,4.60103,2470.684,2022-8-08T04:42:53Z
2022-08-08T02:44:07Z,42.805,6.029,13.3026,4.60101,2470.624,2022-8-08T04:45:56Z
2022-08-08T02:47:11Z,42.805,6.029,13.3026,4.60103,2470.646,2022-8-08T04:48:59Z
2022-08-08T02:50:14Z,42.805,6.029,13.3020,4.60089,2470.67,2022-8-08T04:52:02Z
2022-08-08T02:53:17Z,42.805,6.029,13.3027,4.60092,2470.646,2022-8-08T04:55:05Z
2022-08-08T02:56:20Z,42.805,6.029,13.3021,4.60092,2470.646,2022-8-08T04:58:09Z
2022-08-08T02:59:23Z,42.805,6.029,13.3022,4.60112,2470.684,2022-8-08T05:01:12Z
2022-08-08T03:02:26Z,42.805,6.029,13.3019,4.60097,2470.646,2022-8-08T05:04:15Z
2022-08-08T03:05:29Z,42.805,6.029,13.3015,4.60088,2470.646,2022-8-08T05:07:18Z
2022-08-08T03:08:32Z,42.805,6.029,13.3018,4.60102,2470.624,2022-8-08T05:10:21Z
2022-08-08T03:11:36Z,42.805,6.029,13.3019,4.60097,2470.646,2022-8-08T05:13:24Z
2022-08-08T03:14:39Z,42.805,6.029,13.3021,4.60104,2470.67,2022-8-08T05:16:27Z
2022-08-08T03:17:42Z,42.805,6.029,13.3026,4.60098,2470.646,2022-8-08T05:19:30Z
2022-08-08T03:20:45Z,42.805,6.029,13.3020,4.60080,2470.67,2022-8-08T05:22:33Z
2022-08-08T03:23:48Z,42.805,6.029,13.3014,4.60079,2470.637,2022-8-08T05:25:37Z
2022-08-08T03:26:51Z,42.805,6.029,13.3019,4.60101,2470.646,2022-8-08T05:28:40Z
2022-08-08T03:29:54Z,42.805,6.029,13.3015,4.60092,2470.67,2022-8-08T05:31:43Z
2022-08-08T03:32:57Z,42.805,6.029,13.3016,4.60102,2470.646,2022-8-08T05:34:46Z
2022-08-08T03:36:00Z,42.805,6.029,13.3026,4.60104,2470.624,2022-8-08T05:37:49Z
2022-08-08T03:39:04Z,42.805,6.029,13.3025,4.60079,2470.67,2022-8-08T05:40:52Z
2022-08-08T03:42:07Z,42.805,6.029,13.3014,4.60092,2470.624,2022-8-08T05:43:55Z
2022-08-08T03:45:10Z,42.805,6.029,13.3024,4.60095,2470.6,2022-8-08T05:46:58Z
2022-08-08T03:48:13Z,42.805,6.029,13.3029,4.60099,2470.646,2022-8-08T05:50:02Z
2022-08-08T03:51:16Z,42.805,6.029,13.3022,4.60104,2470.661,2022-8-08T05:53:05Z
2022-08-08T03:54:19Z,42.805,6.029,13.3021,4.60086,2470.684,2022-8-08T05:56:08Z
2022-08-08T03:57:22Z,42.805,6.029,13.3018,4.60087,2470.661,2022-8-08T05:59:11Z
2022-08-08T04:00:25Z,42.805,6.029,13.3029,4.60079,2470.646,2022-8-08T06:02:14Z
2022-08-08T04:03:28Z,42.805,6.029,13.3015,4.60097,2470.67,2022-8-08T06:05:17Z
2022-08-08T04:06:32Z,42.805,6.029,13.3018,4.60077,2470.661,2022-8-08T06:08:20Z
2022-08-08T04:09:35Z,42.805,6.029,13.3036,4.60089,2470.661,2022-8-08T06:11:23Z
2022-08-08T04:12:38Z,42.805,6.029,13.3025,4.60090,2470.684,2022-8-08T06:14:26Z
2022-08-08T04:15:41Z,42.805,6.029,13.3034,4.60092,2470.661,2022-8-08T06:17:30Z
2022-08-08T04:18:44Z,42.805,6.029,13.3029,4.60097,2470.684,2022-8-08T06:20:33Z
2022-08-08T04:21:47Z,42.805,6.029,13.3017,4.60072,2470.646,2022-8-08T06:23:36Z
2022-08-08T04:24:50Z,42.805,6.029,13.3043,4.60107,2470.646,2022-8-08T06:26:39Z
2022-08-08T04:27:53Z,42.805,6.029,13.3017,4.60088,2470.661,2022-8-08T06:29:42Z
2022-08-08T04:30:57Z,42.805,6.029,13.3026,4.60110,2470.646,2022-8-08T06:32:45Z
2022-08-08T04:34:00Z,42.805,6.029,13.3014,4.60078,2470.661,2022-8-08T06:35:48Z
2022-08-08T04:37:03Z,42.805,6.029,13.3016,4.60089,2470.646,2022-8-08T06:38:51Z
2022-08-08T04:40:06Z,42.805,6.029,13.3029,4.60099,2470.67,2022-8-08T06:41:55Z
2022-08-08T04:43:09Z,42.805,6.029,13.3026,4.60107,2470.661,2022-8-08T06:44:58Z
2022-08-08T04:46:12Z,42.805,6.029,13.3015,4.60084,2470.661,2022-8-08T06:48:01Z
2022-08-08T04:49:15Z,42.805,6.029,13.3021,4.60088,2470.684,2022-8-08T06:51:04Z
2022-08-08T04:52:18Z,42.805,6.029,13.3028,4.60114,2470.661,2022-8-08T06:54:07Z
2022-08-08T04:55:21Z,42.805,6.029,13.3013,4.60099,2470.67,2022-8-08T06:57:10Z
2022-08-08T04:58:25Z,42.805,6.029,13.3034,4.60103,2470.684,2022-8-08T07:00:13Z
2022-08-08T05:01:28Z,42.805,6.029,13.3019,4.60097,2470.684,2022-8-08T07:03:16Z
2022-08-08T05:04:31Z,42.805,6.029,13.3025,4.60104,2470.646,2022-8-08T07:06:19Z
2022-08-08T05:07:34Z,42.805,6.029,13.3047,4.60071,2470.661,2022-8-08T07:09:22Z
2022-08-08T05:10:37Z,42.805,6.029,13.3015,4.60111,2470.646,2022-8-08T07:12:26Z
2022-08-08T05:13:40Z,42.805,6.029,13.3024,4.60089,2470.646,2022-8-08T07:15:29Z
2022-08-08T05:16:43Z,42.805,6.029,13.3023,4.60090,2470.624,2022-8-08T07:18:32Z
2022-08-08T05:19:46Z,42.805,6.029,13.3039,4.60097,2470.661,2022-8-08T07:21:35Z
2022-08-08T05:22:49Z,42.805,6.029,13.3031,4.60087,2470.646,2022-8-08T07:24:38Z
2022-08-08T05:25:53Z,42.805,6.029,13.3025,4.60081,2470.624,2022-8-08T07:27:41Z
2022-08-08T05:28:56Z,42.805,6.029,13.3026,4.60079,2470.624,2022-8-08T07:30:44Z
2022-08-08T05:31:59Z,42.805,6.029,13.3026,4.60081,2470.6,2022-8-08T07:33:47Z
2022-08-08T05:35:02Z,42.805,6.029,13.3021,4.60085,2470.661,2022-8-08T07:36:51Z
2022-08-08T05:38:05Z,42.805,6.029,13.3029,4.60098,2470.646,2022-8-08T07:39:54Z
2022-08-08T05:41:08Z,42.805,6.029,13.3017,4.60105,2470.684,2022-8-08T07:42:57Z
2022-08-08T05:44:11Z,42.805,6.029,13.3019,4.60096,2470.67,2022-8-08T07:46:00Z
2022-08-08T05:47:14Z,42.805,6.029,13.3021,4.60102,2470.624,2022-8-08T07:49:03Z
2022-08-08T05:50:18Z,42.805,6.029,13.3019,4.60079,2470.661,2022-8-08T07:52:06Z
2022-08-08T05:53:21Z,42.805,6.029,13.3026,4.60087,2470.624,2022-8-08T07:55:09Z
2022-08-08T05:56:24Z,42.805,6.029,13.3021,4.60075,2470.624,2022-8-08T07:58:12Z
2022-08-08T05:59:27Z,42.805,6.029,13.3022,4.60077,2470.646,2022-8-08T08:01:15Z
2022-08-08T06:02:30Z,42.805,6.029,13.3034,4.60103,2470.6,2022-8-08T08:04:19Z
2022-08-08T06:05:33Z,42.805,6.029,13.3021,4.60099,2470.637,2022-8-08T08:07:22Z
2022-08-08T06:08:36Z,42.805,6.029,13.3023,4.60099,2470.624,2022-8-08T08:10:25Z
2022-08-08T06:11:39Z,42.805,6.029,13.3024,4.60097,2470.624,2022-8-08T08:13:28Z
2022-08-08T06:14:42Z,42.805,6.029,13.3027,4.60106,2470.624,2022-8-08T08:16:31Z
2022-08-08T06:17:46Z,42.805,6.029,13.3024,4.60100,2470.637,2022-8-08T08:19:34Z
2022-08-08T06:20:49Z,42.805,6.029,13.3024,4.60099,2470.624,2022-8-08T08:22:37Z
2022-08-08T06:23:52Z,42.805,6.029,13.3028,4.60099,2470.624,2022-8-08T08:25:40Z
2022-08-08T06:26:55Z,42.805,6.029,13.3021,4.60094,2470.614,2022-8-08T08:28:44Z
2022-08-08T06:29:58Z,42.805,6.029,13.3016,4.60082,2470.6,2022-8-08T08:31:47Z
2022-08-08T06:33:01Z,42.805,6.029,13.3017,4.60077,2470.6,2022-8-08T08:34:50Z
2022-08-08T06:36:04Z,42.805,6.029,13.3025,4.60092,2470.6,2022-8-08T08:37:53Z
2022-08-08T06:39:07Z,42.805,6.029,13.3019,4.60069,2470.646,2022-8-08T08:40:56Z
2022-08-08T06:42:11Z,42.805,6.029,13.3015,4.60092,2470.624,2022-8-08T08:43:59Z
2022-08-08T06:45:14Z,42.805,6.029,13.3029,4.60066,2470.624,2022-8-08T08:47:02Z
2022-08-08T06:48:17Z,42.805,6.029,13.3029,4.60077,2470.6,2022-8-08T08:50:05Z
2022-08-08T06:51:20Z,42.805,6.029,13.3034,4.60073,2470.614,2022-8-08T08:53:08Z
2022-08-08T06:54:23Z,42.805,6.029,13.3016,4.60074,2470.614,2022-8-08T08:56:12Z
2022-08-08T06:57:26Z,42.805,6.029,13.3018,4.60074,2470.637,2022-8-08T08:59:15Z
2022-08-08T07:00:29Z,42.805,6.029,13.3029,4.60088,2470.6,2022-8-08T09:02:18Z
2022-08-08T07:03:32Z,42.805,6.029,13.3026,4.60078,2470.6,2022-8-08T09:05:21Z
2022-08-08T07:06:35Z,42.805,6.029,13.3020,4.60097,2470.6,2022-8-08T09:08:24Z
2022-08-08T07:09:39Z,42.805,6.029,13.3028,4.60090,2470.567,2022-8-08T09:11:27Z
2022-08-08T07:12:42Z,42.805,6.029,13.3029,4.60072,2470.6,2022-8-08T09:14:30Z
2022-08-08T07:15:45Z,42.805,6.029,13.3025,4.60072,2470.624,2022-8-08T09:17:33Z
2022-08-08T07:18:48Z,42.805,6.029,13.3010,4.60067,2470.614,2022-8-08T09:20:37Z
2022-08-08T07:21:51Z,42.805,6.029,13.3023,4.60076,2470.591,2022-8-08T09:23:40Z
2022-08-08T07:24:54Z,42.805,6.029,13.3018,4.60094,2470.591,2022-8-08T09:26:43Z
2022-08-08T07:27:57Z,42.805,6.029,13.3014,4.60089,2470.614,2022-8-08T09:29:46Z
2022-08-08T07:31:00Z,42.805,6.029,13.3021,4.60074,2470.577,2022-8-08T09:32:49Z
2022-08-08T07:34:03Z,42.805,6.029,13.3015,4.60077,2470.6,2022-8-08T09:35:52Z
2022-08-08T07:37:07Z,42.805,6.029,13.3011,4.60085,2470.577,2022-8-08T09:38:55Z
2022-08-08T07:40:10Z,42.805,6.029,13.3014,4.60094,2470.553,2022-8-08T09:41:58Z
2022-08-08T07:43:13Z,42.805,6.029,13.3022,4.60092,2470.591,2022-8-08T09:45:01Z
2022-08-08T07:46:16Z,42.805,6.029,13.3016,4.60086,2470.577,2022-8-08T09:48:05Z
2022-08-08T07:49:19Z,42.805,6.029,13.3013,4.60081,2470.577,2022-8-08T09:51:08Z
2022-08-08T07:52:22Z,42.805,6.029,13.3013,4.60080,2470.591,2022-8-08T09:54:11Z
2022-08-08T07:55:25Z,42.805,6.029,13.3019,4.60100,2470.591,2022-8-08T09:57:14Z
2022-08-08T07:58:28Z,42.805,6.029,13.3023,4.60096,2470.577,2022-8-08T10:00:17Z
2022-08-08T08:01:32Z,42.805,6.029,13.3018,4.60099,2470.507,2022-8-08T10:03:20Z
2022-08-08T08:04:35Z,42.805,6.029,13.3014,4.60087,2470.577,2022-8-08T10:06:23Z
2022-08-08T08:07:38Z,42.805,6.029,13.3023,4.60102,2470.53,2022-8-08T10:09:26Z
2022-08-08T08:10:41Z,42.805,6.029,13.3030,4.60078,2470.577,2022-8-08T10:12:30Z
2022-08-08T08:13:44Z,42.805,6.029,13.3016,4.60091,2470.577,2022-8-08T10:15:33Z
2022-08-08T08:16:47Z,42.805,6.029,13.3009,4.60062,2470.567,2022-8-08T10:18:36Z
2022-08-08T08:19:50Z,42.805,6.029,13.3010,4.60079,2470.544,2022-8-08T10:21:39Z
2022-08-08T08:22:53Z,42.805,6.029,13.3009,4.60074,2470.567,2022-8-08T10:24:42Z
2022-08-08T08:25:57Z,42.805,6.029,13.3035,4.60096,2470.577,2022-8-08T10:27:45Z
2022-08-08T08:29:00Z,42.805,6.029,13.3024,4.60101,2470.577,2022-8-08T10:30:48Z
2022-08-08T08:32:03Z,42.805,6.029,13.3013,4.60087,2470.567,2022-8-08T10:33:51Z
2022-08-08T08:35:06Z,42.805,6.029,13.3012,4.60077,2470.53,2022-8-08T10:36:55Z
2022-08-08T08:38:09Z,42.805,6.029,13.3033,4.60114,2470.553,2022-8-08T10:39:58Z
2022-08-08T08:41:12Z,42.805,6.029,13.3016,4.60085,2470.567,2022-8-08T10:43:01Z
2022-08-08T08:44:15Z,42.805,6.029,13.3022,4.60087,2470.591,2022-8-08T10:46:04Z
2022-08-08T08:47:18Z,42.805,6.029,13.3020,4.60095,2470.567,2022-8-08T10:49:07Z
2022-08-08T08:50:22Z,42.805,6.029,13.3013,4.60101,2470.553,2022-8-08T10:52:10Z
2022-08-08T08:53:25Z,42.805,6.029,13.3021,4.60111,2470.553,2022-8-08T10:55:13Z
2022-08-08T08:56:28Z,42.805,6.029,13.3026,4.60079,2470.553,2022-8-08T10:58:16Z
2022-08-08T08:59:31Z,42.805,6.029,13.3026,4.60089,2470.567,2022-8-08T11:01:19Z
2022-08-08T09:02:34Z,42.805,6.029,13.3023,4.60104,2470.577,2022-8-08T11:04:23Z
2022-08-08T09:05:37Z,42.805,6.029,13.3024,4.60081,2470.553,2022-8-08T11:07:26Z
2022-08-08T09:08:40Z,42.805,6.029,13.3027,4.60077,2470.567,2022-8-08T11:10:29Z
2022-08-08T09:11:43Z,42.805,6.029,13.3024,4.60091,2470.553,2022-8-08T11:13:32Z
2022-08-08T09:14:46Z,42.805,6.029,13.3020,4.60092,2470.52,2022-8-08T11:16:35Z
2022-08-08T09:17:50Z,42.805,6.029,13.3023,4.60102,2470.53,2022-8-08T11:19:38Z
2022-08-08T09:20:53Z,42.805,6.029,13.3011,4.60106,2470.544,2022-8-08T11:22:41Z
2022-08-08T09:23:56Z,42.805,6.029,13.3015,4.60110,2470.553,2022-8-08T11:25:44Z
2022-08-08T09:26:59Z,42.805,6.029,13.3015,4.60088,2470.567,2022-8-08T11:28:48Z
2022-08-08T09:30:02Z,42.805,6.029,13.3028,4.60103,2470.553,2022-8-08T11:31:51Z
2022-08-08T09:33:05Z,42.805,6.029,13.3032,4.60094,2470.53,2022-8-08T11:34:54Z
2022-08-08T09:36:08Z,42.805,6.029,13.3035,4.60093,2470.544,2022-8-08T11:37:57Z
2022-08-08T09:39:11Z,42.805,6.029,13.3024,4.60101,2470.553,2022-8-08T11:41:00Z
2022-08-08T09:42:15Z,42.805,6.029,13.3016,4.60092,2470.53,2022-8-08T11:44:03Z
2022-08-08T09:45:18Z,42.805,6.029,13.3044,4.60112,2470.53,2022-8-08T11:47:06Z
2022-08-08T09:48:21Z,42.805,6.029,13.3026,4.60102,2470.553,2022-8-08T11:50:09Z
2022-08-08T09:51:24Z,42.805,6.029,13.3034,4.60096,2470.53,2022-8-08T11:53:13Z
2022-08-08T09:54:27Z,42.805,6.029,13.3031,4.60092,2470.567,2022-8-08T11:56:16Z
2022-08-08T09:57:30Z,42.805,6.029,13.3026,4.60072,2470.53,2022-8-08T11:59:19Z
2022-08-08T10:00:33Z,42.805,6.029,13.3029,4.60113,2470.507,2022-8-08T12:02:22Z
2022-08-08T10:03:36Z,42.805,6.029,13.3026,4.60091,2470.53,2022-8-08T12:05:25Z
2022-08-08T10:06:40Z,42.805,6.029,13.3024,4.60119,2470.553,2022-8-08T12:08:28Z
2022-08-08T10:09:43Z,42.805,6.029,13.3023,4.60102,2470.52,2022-8-08T12:11:31Z
2022-08-08T10:12:46Z,42.805,6.029,13.3024,4.60081,2470.591,2022-8-08T12:14:34Z
2022-08-08T10:15:49Z,42.805,6.029,13.3019,4.60106,2470.544,2022-8-08T12:17:38Z
2022-08-08T10:18:52Z,42.805,6.029,13.3031,4.60074,2470.53,2022-8-08T12:20:41Z
2022-08-08T10:21:55Z,42.805,6.029,13.3051,4.60104,2470.544,2022-8-08T12:23:44Z
2022-08-08T10:24:58Z,42.805,6.029,13.3016,4.60090,2470.544,2022-8-08T12:26:47Z
2022-08-08T10:28:01Z,42.805,6.029,13.3015,4.60087,2470.567,2022-8-08T12:29:50Z
2022-08-08T10:31:05Z,42.805,6.029,13.3023,4.60092,2470.507,2022-8-08T12:32:53Z
2022-08-08T10:34:08Z,42.805,6.029,13.3017,4.60081,2470.577,2022-8-08T12:35:56Z
2022-08-08T10:37:11Z,42.805,6.029,13.3016,4.60084,2470.577,2022-8-08T12:38:59Z
2022-08-08T10:40:14Z,42.805,6.029,13.3021,4.60070,2470.544,2022-8-08T12:42:03Z
2022-08-08T10:43:17Z,42.805,6.029,13.3026,4.60087,2470.577,2022-8-08T12:45:06Z
2022-08-08T10:46:20Z,42.805,6.029,13.3019,4.60114,2470.567,2022-8-08T12:48:09Z
2022-08-08T10:49:23Z,42.805,6.029,13.3015,4.60088,2470.53,2022-8-08T12:51:12Z
2022-08-08T10:52:26Z,42.805,6.029,13.3020,4.60092,2470.553,2022-8-08T12:54:15Z
2022-08-08T10:55:30Z,42.805,6.029,13.3019,4.60108,2470.553,2022-8-08T12:57:18Z
2022-08-08T10:58:33Z,42.805,6.029,13.3015,4.60096,2470.507,2022-8-08T13:00:21Z
2022-08-08T11:01:36Z,42.805,6.029,13.3006,4.60074,2470.544,2022-8-08T13:03:24Z
2022-08-08T11:04:39Z,42.805,6.029,13.3018,4.60095,2470.553,2022-8-08T13:06:28Z
2022-08-08T11:07:42Z,42.805,6.029,13.3015,4.60095,2470.553,2022-8-08T13:09:31Z
2022-08-08T11:10:45Z,42.805,6.029,13.3019,4.60107,2470.53,2022-8-08T13:12:34Z
2022-08-08T11:13:48Z,42.805,6.029,13.3018,4.60114,2470.53,2022-8-08T13:15:37Z
2022-08-08T11:16:51Z,42.805,6.029,13.3026,4.60110,2470.553,2022-8-08T13:18:40Z
2022-08-08T11:19:55Z,42.805,6.029,13.3024,4.60107,2470.553,2022-8-08T13:21:43Z
2022-08-08T11:22:58Z,42.805,6.029,13.3025,4.60081,2470.544,2022-8-08T13:24:46Z
2022-08-08T11:26:01Z,42.805,6.029,13.3013,4.60097,2470.53,2022-8-08T13:27:49Z
2022-08-08T11:29:04Z,42.805,6.029,13.3016,4.60108,2470.567,2022-8-08T13:30:53Z
2022-08-08T11:32:07Z,42.805,6.029,13.3023,4.60114,2470.591,2022-8-08T13:33:56Z
2022-08-08T11:35:10Z,42.805,6.029,13.3019,4.60102,2470.567,2022-8-08T13:36:59Z
2022-08-08T11:38:13Z,42.805,6.029,13.3019,4.60094,2470.553,2022-8-08T13:40:02Z
2022-08-08T11:41:16Z,42.805,6.029,13.3024,4.60102,2470.591,2022-8-08T13:43:05Z
2022-08-08T11:44:19Z,42.805,6.029,13.3024,4.60103,2470.591,2022-8-08T13:46:08Z
2022-08-08T11:47:23Z,42.805,6.029,13.3023,4.60117,2470.53,2022-8-08T13:49:11Z
2022-08-08T11:50:26Z,42.805,6.029,13.3017,4.60104,2470.577,2022-8-08T13:52:14Z
2022-08-08T11:53:29Z,42.805,6.029,13.3026,4.60112,2470.577,2022-8-08T13:55:17Z
2022-08-08T11:56:32Z,42.805,6.029,13.3027,4.60097,2470.577,2022-8-08T13:58:21Z
2022-08-08T11:59:35Z,42.805,6.029,13.3026,4.60124,2470.577,2022-8-08T14:01:24Z
2022-08-08T12:02:38Z,42.805,6.029,13.3036,4.60087,2470.553,2022-8-08T14:04:27Z
2022-08-08T12:05:41Z,42.805,6.029,13.3029,4.60065,2470.553,2022-8-08T14:07:30Z
2022-08-08T12:08:44Z,42.805,6.029,13.3026,4.60114,2470.591,2022-8-08T14:10:33Z
2022-08-08T12:11:48Z,42.805,6.029,13.3017,4.60080,2470.553,2022-8-08T14:13:36Z
2022-08-08T12:14:51Z,42.805,6.029,13.3020,4.60102,2470.553,2022-8-08T14:16:39Z
2022-08-08T12:17:54Z,42.805,6.029,13.3044,4.60109,2470.6,2022-8-08T14:19:42Z
2022-08-08T12:20:57Z,42.805,6.029,13.3029,4.60079,2470.614,2022-8-08T14:22:46Z
2022-08-08T12:24:00Z,42.805,6.029,13.3021,4.60095,2470.577,2022-8-08T14:25:49Z
2022-08-08T12:27:03Z,42.805,6.029,13.3019,4.60078,2470.6,2022-8-08T14:28:52Z
2022-08-08T12:30:06Z,42.805,6.029,13.3021,4.60101,2470.614,2022-8-08T14:31:55Z
2022-08-08T12:33:09Z,42.805,6.029,13.3014,4.60084,2470.577,2022-8-08T14:34:58Z
2022-08-08T12:36:13Z,42.805,6.029,13.3020,4.60087,2470.577,2022-8-08T14:38:01Z
2022-08-08T12:39:16Z,42.805,6.029,13.3011,4.60116,2470.6,2022-8-08T14:41:04Z
2022-08-08T12:42:19Z,42.805,6.029,13.3034,4.60092,2470.591,2022-8-08T14:44:07Z
2022-08-08T12:45:22Z,42.805,6.029,13.3031,4.60113,2470.6,2022-8-08T14:47:11Z
2022-08-08T12:48:25Z,42.805,6.029,13.3021,4.60119,2470.6,2022-8-08T14:50:14Z
2022-08-08T12:51:28Z,42.805,6.029,13.3015,4.60121,2470.614,2022-8-08T14:53:17Z
2022-08-08T12:54:31Z,42.805,6.029,13.3020,4.60094,2470.6,2022-8-08T14:56:20Z
2022-08-08T12:57:34Z,42.805,6.029,13.3013,4.60091,2470.624,2022-8-08T14:59:23Z
2022-08-08T13:00:38Z,42.805,6.029,13.3016,4.60077,2470.614,2022-8-08T15:02:26Z
2022-08-08T13:03:41Z,42.805,6.029,13.3021,4.60129,2470.591,2022-8-08T15:05:29Z
2022-08-08T13:06:44Z,42.805,6.029,13.3016,4.60118,2470.6,2022-8-08T15:08:32Z
2022-08-08T13:09:47Z,42.805,6.029,13.3036,4.60122,2470.624,2022-8-08T15:11:36Z
2022-08-08T13:12:50Z,42.805,6.029,13.3031,4.60111,2470.624,2022-8-08T15:14:39Z
2022-08-08T13:15:53Z,42.805,6.029,13.3019,4.60132,2470.6,2022-8-08T15:17:42Z
2022-08-08T13:18:56Z,42.805,6.029,13.3022,4.60085,2470.624,2022-8-08T15:20:45Z
2022-08-08T13:21:59Z,42.805,6.029,13.3021,4.60085,2470.6,2022-8-08T15:23:48Z
2022-08-08T13:25:02Z,42.805,6.029,13.3026,4.60113,2470.61,2022-8-08T15:26:51Z
2022-08-08T13:28:06Z,42.805,6.029,13.3023,4.60097,2470.637,2022-8-08T15:29:54Z
2022-08-08T13:31:09Z,42.805,6.029,13.3032,4.60102,2470.646,2022-8-08T15:32:57Z
2022-08-08T13:34:12Z,42.805,6.029,13.3021,4.60111,2470.577,2022-8-08T15:36:01Z
2022-08-08T13:37:15Z,42.805,6.029,13.3025,4.60114,2470.624,2022-8-08T15:39:04Z
2022-08-08T13:40:18Z,42.805,6.029,13.3026,4.60129,2470.637,2022-8-08T15:42:07Z
2022-08-08T13:43:21Z,42.805,6.029,13.3039,4.60128,2470.624,2022-8-08T15:45:10Z
2022-08-08T13:46:24Z,42.805,6.029,13.3048,4.60110,2470.646,2022-8-08T15:48:13Z
2022-08-08T13:49:27Z,42.805,6.029,13.3035,4.60091,2470.637,2022-8-08T15:51:16Z
2022-08-08T13:52:31Z,42.805,6.029,13.3026,4.60070,2470.656,2022-8-08T15:54:19Z
2022-08-08T13:55:34Z,42.805,6.029,13.3024,4.60088,2470.646,2022-8-08T15:57:22Z
2022-08-08T13:58:37Z,42.805,6.029,13.3026,4.60112,2470.624,2022-8-08T16:00:26Z
2022-08-08T14:01:40Z,42.805,6.029,13.3015,4.60109,2470.67,2022-8-08T16:03:29Z
2022-08-08T14:04:43Z,42.805,6.029,13.3034,4.60097,2470.624,2022-8-08T16:06:32Z
2022-08-08T14:07:46Z,42.805,6.029,13.3021,4.60102,2470.67,2022-8-08T16:09:35Z
2022-08-08T14:10:49Z,42.805,6.029,13.3019,4.60102,2470.646,2022-8-08T16:12:38Z
2022-08-08T14:13:52Z,42.805,6.029,13.3014,4.60102,2470.646,2022-8-08T16:15:41Z
2022-08-08T14:16:56Z,42.805,6.029,13.3026,4.60116,2470.646,2022-8-08T16:18:44Z
2022-08-08T14:19:59Z,42.805,6.029,13.3029,4.60125,2470.661,2022-8-08T16:21:47Z
2022-08-08T14:23:02Z,42.805,6.029,13.3024,4.60102,2470.646,2022-8-08T16:24:50Z
2022-08-08T14:26:05Z,42.805,6.029,13.3034,4.60104,2470.661,2022-8-08T16:27:54Z
2022-08-08T14:29:08Z,42.805,6.029,13.3029,4.60107,2470.624,2022-8-08T16:30:57Z
2022-08-08T14:32:11Z,42.805,6.029,13.3041,4.60069,2470.637,2022-8-08T16:34:00Z
2022-08-08T14:35:14Z,42.805,6.029,13.3036,4.60067,2470.646,2022-8-08T16:37:03Z
2022-08-08T14:38:17Z,42.805,6.029,13.3021,4.60112,2470.661,2022-8-08T16:40:06Z
2022-08-08T14:41:21Z,42.805,6.029,13.3019,4.60086,2470.661,2022-8-08T16:43:09Z
2022-08-08T14:44:24Z,42.805,6.029,13.3036,4.60117,2470.67,2022-8-08T16:46:12Z
2022-08-08T14:47:27Z,42.805,6.029,13.3046,4.60069,2470.67,2022-8-08T16:49:15Z
2022-08-08T14:50:30Z,42.805,6.029,13.3029,4.60092,2470.67,2022-8-08T16:52:19Z
2022-08-08T14:53:33Z,42.805,6.029,13.3017,4.60104,2470.661,2022-8-08T16:55:22Z
2022-08-08T14:56:36Z,42.805,6.029,13.3033,4.60110,2470.646,2022-8-08T16:58:25Z
2022-08-08T14:59:39Z,42.805,6.029,13.3044,4.60095,2470.684,2022-8-08T17:01:28Z
2022-08-08T15:02:42Z,42.805,6.029,13.3029,4.60083,2470.693,2022-8-08T17:04:31Z
2022-08-08T15:05:45Z,42.805,6.029,13.3026,4.60094,2470.693,2022-8-08T17:07:34Z
2022-08-08T15:08:49Z,42.805,6.029,13.3046,4.60101,2470.67,2022-8-08T17:10:37Z
2022-08-08T15:11:52Z,42.805,6.029,13.3042,4.60099,2470.693,2022-8-08T17:13:40Z
2022-08-08T15:14:55Z,42.805,6.029,13.3031,4.60096,2470.67,2022-8-08T17:16:43Z